Regional Weather Roundup
Issued by NWS

Home | Current Version | Previous Version | Graphics & Text | Print | Product List | Glossary On
Versions: 1 2 3 4 5 6 7 8 9 10 11 12 13 14 15 16 17 18 19 20 21 22 23 24 25 26 27 28 29 30 31 32 33 34 35 36 37 38 39 40 41 42 43 44 45 46 47 48 49 50
000
ASUS44 KMEG 260210
RWRTN
TENNESSEE HOURLY STATE WEATHER ROUNDUP
NATIONAL WEATHER SERVICE MEMPHIS TN
900 PM CDT SAT MAR 25 2017

TNZ002-004-019-021-049-052-054-088>092-260300-
WEST TENNESSEE

CITY           SKY/WX    TMP DP  RH WIND       PRES   REMARKS
MEMPHIS INTL   LGT RAIN  63  60  90 S10       29.91R
NWS MEMPHIS      N/A     62 N/A N/A MISG        N/A
JACKSON        CLOUDY    62  57  83 S8        29.94R
DYERSBURG      CLOUDY    62  57  83 W7        29.93R
SOMERVILLE     MOCLDY    61  59  94 S6        29.92R
BOLIVAR        MOCLDY    61  57  88 SE10      29.94R
PARIS          MOCLDY    59  54  82 S9        29.94R
HUNTINGDON     CLOUDY    61  57  88 S7        29.93R
SAVANNAH       CLOUDY    61  57  88 SE7G14    29.95F
$$

TNZ008-025-027-028-033-062-065-066-260300-
NORTH MIDDLE TENNESSEE

CITY           SKY/WX    TMP DP  RH WIND       PRES   REMARKS
NASHVILLE      LGT RAIN  62  56  80 S10       30.01R
PORTLAND       CLOUDY    63  55  77 S12       30.01R
CLARKSVILLE    CLOUDY    66  52  60 S7        29.96R
SMYRNA         LGT RAIN  60  57  89 SE13      30.04R
COOKEVILLE     CLOUDY    59  57  94 S5        30.06S
GALLATIN       CLOUDY    63  57  82 SE10G18   30.05R
CROSSVILLE     CLOUDY    59  54  83 CALM      30.10S
$$

TNZ061-075-076-078-094-096-097-260300-
SOUTH MIDDLE TENNESSEE

CITY           SKY/WX    TMP DP  RH WIND       PRES   REMARKS
FAYETTEVILLE   CLOUDY    59  57  94 S10       30.07R FOG
TULLAHOMA      CLOUDY    57  55  94 S6        30.07F
WINCHESTER     CLOUDY    57  57 100 S6        30.08S
MCMINNVILLE    CLOUDY    59  59 100 SW7       30.07S
COLUMBIA       MOCLDY    61  61 100 S9        29.99R
SHELBYVILLE    CLOUDY   N/A N/A N/A MISG      30.05R
$$

TNZ017-018-042-046-047-260300-
NORTHEAST TENNESSEE

CITY           SKY/WX    TMP DP  RH WIND       PRES   REMARKS
TRI CITIES     PTCLDY    65  46  50 SE6       30.16R
ELIZABETHTON   MOCLDY    57  46  67 CALM      30.17R
$$

TNZ012-013-036-069-073-074-260300-
CENTRAL EAST TENNESSEE

CITY           SKY/WX    TMP DP  RH WIND       PRES   REMARKS
KNOXVILLE      CLEAR     67  47  48 SE6       30.08R
OAK RIDGE      CLOUDY    70  46  42 S5        30.09R
DOWNTOWN KNOXV CLEAR     64  50  59 CALM      30.09R
GATLINBURG     CLEAR     64  45  48 CALM      30.10R
MORRISTOWN     MOCLDY    64  46  52 SE7       30.10S
JACKSBORO      MOCLDY    66  48  52 VRB3      30.11R
$$

TNZ083-085-099-260300-
SOUTHEAST TENNESSEE

CITY           SKY/WX    TMP DP  RH WIND       PRES   REMARKS
CHATTANOOGA    CLOUDY    65  54  67 W10       30.08R
$$

SKY/WX REPORTED AS FAIR MEANS FEW OR NO CLOUDS BELOW
12 THOUSAND FEET.





USA.gov is the U.S. government's official web portal to all federal, state and local government web resources and services.